Weather History for Provo, UT

Change the Weather History Date:

Monday, May 5, 2014

  Actual Average Record
Temperature  
Mean Temperature 62 °F -  
Max Temperature 75 °F 64 °F 87 °F (1992)
Min Temperature 50 °F 40 °F 30 °F (1999)
Degree Days  
Heating Degree Days 2    
Growing Degree Days 12 (Base 50)    
Moisture  
Dew Point 32 °F    
Average Humidity 36    
Maximum Humidity 62    
Minimum Humidity 18    
Precipitation  
Precipitation 0.00 in - - ()
Sea Level Pressure  
Sea Level Pressure 29.82 in    
Wind  
Wind Speed 5 mph (WNW)    
Max Wind Speed 21 mph    
Max Gust Speed 17 mph    
Visibility 12 miles    
Events      
Averages and records for this station are not official NWS values.
T = Trace of Precipitation, MM = Missing Value Source: NWS Daily Summary

Daily Weather History Graph

Daily Weather History Graph

Search for Another Location

Airport:

Trip Planner

Search our weather history database for the weather conditions in past years. The results will help you decide how hot, cold, wet, or windy it might be!

Date:

Astronomy

May. 05, 2014 Rise Set
Actual Time 6:21 AM MDT 8:26 PM MDT
Civil Twilight 5:51 AM MDT 8:56 PM MDT
Nautical Twilight 5:15 AM MDT 9:32 PM MDT
Astronomical Twilight 4:35 AM MDT 10:12 PM MDT
Moon 11:44 AM MDT (5/5) 1:12 AM MDT (5/5)
Length of Visible Light 15h 04m
Length of Day
14h 04m
Waxing Crescent, 37% of the Moon is Illuminated
May 5
Waxing Crescent
May 6
First Quarter
May 14
Full
May 21
Last Quarter
May 28
New

Hourly Weather History & Observations

Time (MDT) Temp. Dew Point Humidity Pressure Visibility Wind Dir Wind Speed Gust Speed Precip Events Conditions
12:15 AM 55.4 °F 39.2 °F 54% 29.86 in 10.0 mi Calm Calm - N/A   Clear
12:35 AM 55.4 °F 37.4 °F 51% 29.87 in 10.0 mi Calm Calm - N/A   Clear
12:55 AM 51.8 °F 39.2 °F 62% 29.87 in 10.0 mi Calm Calm - N/A   Clear
1:15 AM 51.8 °F 37.4 °F 58% 29.87 in 10.0 mi NE 3.5 mph - N/A   Clear
1:35 AM 55.4 °F 32.0 °F 41% 29.87 in 10.0 mi East 6.9 mph - N/A   Clear
1:55 AM 57.2 °F 28.4 °F 33% 29.87 in 10.0 mi Calm Calm - N/A   Clear
2:15 AM 59.0 °F 26.6 °F 29% 29.87 in 10.0 mi SSW 3.5 mph - N/A   Clear
2:35 AM 59.0 °F 26.6 °F 29% 29.87 in 10.0 mi SSW 4.6 mph - N/A   Clear
2:55 AM 59.0 °F 24.8 °F 27% 29.87 in 10.0 mi Calm Calm - N/A   Clear
3:15 AM 57.2 °F 24.8 °F 29% 29.87 in 10.0 mi WSW 3.5 mph - N/A   Clear
3:35 AM 57.2 °F 23.0 °F 27% 29.87 in 10.0 mi Calm Calm - N/A   Clear
3:55 AM 55.4 °F 24.8 °F 31% 29.87 in 10.0 mi Calm Calm - N/A   Clear
4:15 AM 55.4 °F 23.0 °F 29% 29.87 in 10.0 mi ENE 3.5 mph - N/A   Clear
4:35 AM 55.4 °F 23.0 °F 29% 29.87 in 10.0 mi ENE 5.8 mph - N/A   Clear
4:55 AM 53.6 °F 23.0 °F 30% 29.87 in 10.0 mi ENE 5.8 mph - N/A   Clear
5:15 AM 57.2 °F 21.2 °F 25% 29.87 in 10.0 mi Calm Calm - N/A   Clear
5:35 AM 53.6 °F 24.8 °F 33% 29.87 in 10.0 mi NNW 3.5 mph - N/A   Clear
5:55 AM 51.8 °F 24.8 °F 35% 29.87 in 10.0 mi Calm Calm - N/A   Clear
6:15 AM 50.0 °F 24.8 °F 37% 29.88 in 10.0 mi Calm Calm - N/A   Clear
6:35 AM 55.4 °F 24.8 °F 31% 29.88 in 10.0 mi North 4.6 mph - N/A   Clear
6:53 AM 60.8 °F 23.0 °F 23% 29.88 in 15.0 mi Variable 4.6 mph - N/A   Scattered Clouds
7:55 AM 66.2 °F 24.8 °F 21% 29.88 in 15.0 mi South 3.5 mph - N/A   Scattered Clouds
8:55 AM 66.2 °F 26.6 °F 23% 29.88 in 15.0 mi SW 8.1 mph - N/A   Scattered Clouds
9:55 AM 69.8 °F 28.4 °F 21% 29.87 in 15.0 mi SW 8.1 mph - N/A   Mostly Cloudy
10:47 AM 71.6 °F 35.6 °F 27% 29.86 in 15.0 mi SW 12.7 mph - N/A   Mostly Cloudy
11:50 AM 71.6 °F 35.6 °F 27% 29.84 in 15.0 mi SW 16.1 mph - N/A   Mostly Cloudy
12:52 PM 75.2 °F 28.4 °F 18% 29.82 in 15.0 mi SSW 11.5 mph - N/A   Mostly Cloudy
1:48 PM 73.4 °F 37.4 °F 27% 29.80 in 15.0 mi SSW 10.4 mph - N/A   Mostly Cloudy
2:52 PM 71.6 °F 37.4 °F 29% 29.77 in 15.0 mi SW 11.5 mph - N/A   Mostly Cloudy
3:49 PM 71.6 °F 39.2 °F 31% 29.75 in 15.0 mi WSW 8.1 mph - N/A   Overcast
4:52 PM 71.6 °F 35.6 °F 27% 29.72 in 15.0 mi NNW 9.2 mph 17.3 mph N/A   Overcast
5:49 PM 66.2 °F 42.8 °F 43% 29.70 in 15.0 mi NW 17.3 mph - N/A   Mostly Cloudy
6:55 PM 64.4 °F 42.8 °F 45% 29.71 in 15.0 mi NW 13.8 mph - N/A   Mostly Cloudy
7:49 PM 62.6 °F 42.8 °F 48% 29.71 in 15.0 mi NW 11.5 mph - N/A   Mostly Cloudy
8:49 PM 60.8 °F 35.6 °F 39% 29.73 in 15.0 mi WNW 4.6 mph - N/A   Mostly Cloudy
9:15 PM 60.8 °F 39.2 °F 45% 29.73 in 10.0 mi WNW 16.1 mph - N/A   Clear
9:35 PM 60.8 °F 37.4 °F 42% 29.74 in 10.0 mi NW 11.5 mph - N/A   Clear
9:55 PM 60.8 °F 37.4 °F 42% 29.74 in 10.0 mi NW 10.4 mph - N/A   Clear
10:15 PM 59.0 °F 39.2 °F 48% 29.75 in 10.0 mi NW 10.4 mph - N/A   Clear
10:35 PM 60.8 °F 39.2 °F 45% 29.74 in 10.0 mi NNW 12.7 mph - N/A   Partly Cloudy
10:55 PM 59.0 °F 39.2 °F 48% 29.74 in 10.0 mi NE 6.9 mph - N/A   Clear
11:15 PM 55.4 °F 37.4 °F 51% 29.74 in 10.0 mi Calm Calm - N/A   Clear
11:35 PM 55.4 °F 35.6 °F 47% 29.74 in 10.0 mi West 6.9 mph - N/A   Clear
11:55 PM 57.2 °F 41.0 °F 55% 29.73 in 10.0 mi NW 20.7 mph - N/A   Clear